CW5139 Weather Reports


Display with metric or nautical units.
time (UTC)temp
F
wind
direction
speed
MPH
gust
MPH
rain 1hr
in
rain 24hr
in
rain mn
in
humidity
%
barometer
mb
20200216230324 42 301 0.0 0.0 0.00 0.00 0.00 65 1018.7
20200216225838 42 301 0.0 0.0 0.00 0.00 0.00 65 1018.8
20200216225335 42 301 0.0 0.0 0.00 0.00 0.00 65 1018.7
20200216224833 42 301 0.0 0.0 0.00 0.00 0.00 65 1018.5
20200216224332 42 301 0.0 0.0 0.00 0.00 0.00 65 1018.4
20200216223827 42 301 0.0 0.0 0.00 0.00 0.00 66 1018.5
20200216223323 42 301 0.0 0.0 0.00 0.00 0.00 66 1018.4
20200216222817 42 301 0.0 0.0 0.00 0.00 0.00 66 1018.2
20200216222336 42 301 0.0 0.0 0.00 0.00 0.00 66 1018.1
20200216221829 41 301 0.0 0.0 0.00 0.00 0.00 66 1018.2
20200216221324 41 301 0.0 0.0 0.00 0.00 0.00 66 1018.0
20200216220838 41 301 0.0 0.0 0.00 0.00 0.00 66 1018.1
20200216220334 41 301 0.0 0.0 0.00 0.00 0.00 66 1018.1
20200216215828 41 301 0.0 0.0 0.00 0.00 0.00 67 1018.1
20200216215325 41 301 0.0 0.0 0.00 0.00 0.00 66 1018.0
20200216214823 41 301 0.0 0.0 0.00 0.00 0.00 66 1018.1
20200216214320 41 301 0.0 0.0 0.00 0.00 0.00 66 1018.0
20200216213835 41 301 0.0 0.0 0.00 0.00 0.00 66 1017.9
20200216213331 41 307 0.0 0.0 0.00 0.00 0.00 66 1018.0
20200216212825 41 307 0.0 0.0 0.00 0.00 0.00 66 1018.0
20200216212324 41 307 0.0 1.0 0.00 0.00 0.00 66 1018.0
20200216211817 41 307 0.0 1.0 0.00 0.00 0.00 65 1017.9
20200216211338 42 307 0.0 0.0 0.00 0.00 0.00 65 1017.9
20200216210834 42 307 0.0 0.0 0.00 0.00 0.00 65 1017.8
20200216210330 42 307 0.0 0.0 0.00 0.00 0.00 65 1017.9
20200216205824 42 307 0.0 0.0 0.00 0.00 0.00 65 1017.9
20200216205321 42 307 0.0 0.0 0.00 0.00 0.00 65 1017.9
20200216204834 41 307 0.0 0.0 0.00 0.00 0.00 66 1017.8
20200216204331 41 307 0.0 0.0 0.00 0.00 0.00 65 1017.7
20200216203826 41 307 0.0 0.0 0.00 0.00 0.00 67 1017.9
20200216203325 41 307 0.0 5.0 0.00 0.00 0.00 66 1017.9
20200216202819 41 276 1.0 5.0 0.00 0.00 0.00 66 1017.9
20200216202335 41 258 0.0 2.0 0.00 0.00 0.00 66 1017.8
20200216201827 41 258 0.0 1.0 0.00 0.00 0.00 66 1017.9
20200216201328 41 257 0.0 0.0 0.00 0.00 0.00 67 1017.8
20200216200822 41 257 0.0 0.0 0.00 0.00 0.00 66 1017.8
20200216200322 41 257 0.0 0.0 0.00 0.00 0.00 66 1017.7
20200216195836 41 257 0.0 0.0 0.00 0.00 0.00 66 1017.7
20200216195332 41 257 0.0 0.0 0.00 0.00 0.00 66 1017.8
20200216194826 41 245 0.0 0.0 0.00 0.00 0.00 66 1017.7
20200216194321 41 245 0.0 0.0 0.00 0.00 0.00 66 1017.9
20200216193834 41 246 0.0 6.0 0.00 0.00 0.00 66 1018.0
20200216193329 41 246 2.0 6.0 0.00 0.00 0.00 65 1017.9
20200216192827 41 280 2.0 5.0 0.00 0.00 0.00 64 1018.0
20200216192322 41 281 1.0 5.0 0.00 0.00 0.00 65 1017.9
20200216191820 41 283 0.0 0.0 0.00 0.00 0.00 66 1017.9
20200216191321 41 284 0.0 0.0 0.00 0.00 0.00 66 1017.9
20200216190836 41 284 0.0 0.0 0.00 0.00 0.00 65 1018.0
20200216190331 41 283 0.0 0.0 0.00 0.00 0.00 66 1018.0
20200216185826 41 283 0.0 0.0 0.00 0.00 0.00 66 1017.9
20200216185322 41 283 0.0 0.0 0.00 0.00 0.00 65 1017.9
20200216184838 41 283 0.0 0.0 0.00 0.00 0.00 65 1017.8
20200216184452 41 284 0.0 0.0 0.00 0.00 0.00 65 1017.8
20200216183830 41 287 0.0 2.0 0.00 0.00 0.00 65 1018.0
20200216183326 41 291 0.0 2.0 0.00 0.00 0.00 65 1017.9
20200216182820 41 294 0.0 4.0 0.00 0.00 0.00 65 1017.9
20200216182337 41 294 1.0 4.0 0.00 0.00 0.00 64 1017.9
20200216181831 41 251 1.0 4.0 0.00 0.00 0.00 64 1017.9
20200216181326 41 294 0.0 0.0 0.00 0.00 0.00 65 1018.0
20200216180820 41 294 0.0 0.0 0.00 0.00 0.00 64 1018.1
20200216180335 41 294 0.0 4.0 0.00 0.00 0.00 64 1018.2
20200216175832 41 294 1.0 4.0 0.00 0.00 0.00 63 1018.2
20200216175317 41 294 0.0 4.0 0.00 0.00 0.00 63 1018.2
20200216174834 42 295 0.0 5.0 0.00 0.00 0.00 62 1018.3
20200216174331 42 301 0.0 5.0 0.00 0.00 0.00 62 1018.4
20200216173828 42 290 1.0 6.0 0.00 0.00 0.00 62 1018.5
20200216173323 42 277 3.0 6.0 0.00 0.00 0.00 61 1018.5
20200216172822 42 296 3.0 5.0 0.00 0.00 0.00 60 1018.5
20200216172321 42 291 0.0 5.0 0.00 0.00 0.00 61 1018.4
20200216171833 42 289 1.0 5.0 0.00 0.00 0.00 61 1018.3
20200216171330 42 268 0.0 3.0 0.00 0.00 0.00 61 1018.3
20200216170822 42 268 0.0 3.0 0.00 0.00 0.00 60 1018.5
20200216170320 42 287 0.0 6.0 0.00 0.00 0.00 60 1018.5
20200216165832 42 279 0.0 2.0 0.00 0.00 0.00 60 1018.5
20200216165332 42 240 0.0 2.0 0.00 0.00 0.00 60 1018.5
20200216164827 42 240 0.0 4.0 0.00 0.00 0.00 60 1018.5
20200216164326 42 240 0.0 4.0 0.00 0.00 0.00 60 1018.6
20200216163820 42 243 0.0 3.0 0.00 0.00 0.00 60 1018.5
20200216163318 41 241 0.0 3.0 0.00 0.00 0.00 60 1018.6
20200216162836 41 250 0.0 5.0 0.00 0.00 0.00 60 1018.6
20200216162333 41 193 0.0 6.0 0.00 0.00 0.00 60 1018.8
20200216161828 41 239 4.0 7.0 0.00 0.00 0.00 59 1018.8
20200216161324 41 214 2.0 7.0 0.00 0.00 0.00 60 1018.8
20200216160818 41 219 4.0 7.0 0.00 0.00 0.00 60 1018.9
20200216160320 41 227 2.0 8.0 0.00 0.00 0.00 60 1018.9
20200216155836 41 218 3.0 8.0 0.00 0.00 0.00 60 1018.9
20200216155333 41 221 2.0 7.0 0.00 0.00 0.00 60 1018.8
20200216154828 41 191 3.0 7.0 0.00 0.00 0.00 60 1018.8
20200216154324 41 235 0.0 7.0 0.00 0.00 0.00 61 1018.9
20200216153816 40 235 3.0 7.0 0.00 0.00 0.00 61 1019.0
20200216153335 40 232 0.0 6.0 0.00 0.00 0.00 61 1019.0
20200216152829 40 208 1.0 6.0 0.00 0.00 0.00 61 1018.9
20200216152327 40 200 2.0 8.0 0.00 0.00 0.00 61 1018.9
20200216151821 40 193 1.0 7.0 0.00 0.00 0.00 62 1019.0
20200216151322 40 203 0.0 5.0 0.00 0.00 0.00 63 1019.0
20200216150819 39 188 0.0 6.0 0.00 0.00 0.00 63 1019.0
20200216150335 39 183 1.0 6.0 0.00 0.00 0.00 65 1019.2
20200216145830 39 245 0.0 0.0 0.00 0.00 0.00 66 1019.2
20200216145328 39 245 0.0 0.0 0.00 0.00 0.00 68 1019.2
20200216144822 38 245 0.0 0.0 0.00 0.00 0.00 69 1019.3
20200216144321 38 245 0.0 0.0 0.00 0.00 0.00 71 1019.2
20200216143834 38 245 0.0 0.0 0.00 0.00 0.00 72 1019.2
20200216143332 38 245 0.0 0.0 0.00 0.00 0.00 72 1019.3
20200216142825 37 245 0.0 0.0 0.00 0.00 0.00 72 1019.3
20200216142321 37 245 0.0 0.0 0.00 0.00 0.00 72 1019.4
20200216141835 37 245 0.0 0.0 0.00 0.00 0.00 73 1019.5
20200216141331 37 245 0.0 0.0 0.00 0.00 0.00 73 1019.5
20200216140825 37 245 0.0 0.0 0.00 0.00 0.00 73 1019.4
20200216140318 37 245 0.0 0.0 0.00 0.00 0.00 73 1019.4
20200216135836 37 245 0.0 0.0 0.00 0.00 0.00 74 1019.4
20200216135331 37 245 0.0 0.0 0.00 0.00 0.00 74 1019.4
20200216134829 37 245 0.0 0.0 0.00 0.00 0.00 74 1019.3
20200216134327 37 245 0.0 0.0 0.00 0.00 0.00 72 1019.4
20200216133821 37 245 0.0 0.0 0.00 0.00 0.00 71 1019.3
20200216133319 37 245 0.0 0.0 0.00 0.00 0.00 70 1019.3
20200216132833 37 245 0.0 0.0 0.00 0.00 0.00 70 1019.3
20200216132331 37 245 0.0 0.0 0.00 0.00 0.00 69 1019.3
20200216131826 37 245 0.0 0.0 0.00 0.00 0.00 67 1019.2
20200216131319 37 245 0.0 0.0 0.00 0.00 0.00 66 1019.3
20200216130834 37 245 0.0 0.0 0.00 0.00 0.00 66 1019.3
20200216130330 37 245 0.0 0.0 0.00 0.00 0.00 65 1019.3
20200216125825 37 245 0.0 0.0 0.00 0.00 0.00 65 1019.3
20200216125323 37 245 0.0 4.0 0.00 0.00 0.00 66 1019.3
20200216124837 37 245 1.0 4.0 0.00 0.00 0.00 67 1019.2
20200216124334 36 245 1.0 4.0 0.00 0.00 0.00 69 1019.3
20200216123831 36 245 0.0 0.0 0.00 0.00 0.00 70 1019.2
20200216123326 36 245 0.0 0.0 0.00 0.00 0.00 71 1019.2
20200216122828 35 245 0.0 0.0 0.00 0.00 0.00 72 1019.2
20200216122323 35 245 0.0 0.0 0.00 0.00 0.00 73 1019.2
20200216121817 35 245 0.0 0.0 0.00 0.00 0.00 74 1019.3
20200216121336 35 245 0.0 0.0 0.00 0.00 0.00 74 1019.2
20200216120831 35 245 0.0 0.0 0.00 0.00 0.00 74 1019.3
20200216120325 35 245 0.0 0.0 0.00 0.00 0.00 74 1019.3
20200216115822 35 245 0.0 0.0 0.00 0.00 0.00 74 1019.2
20200216115318 35 245 0.0 0.0 0.00 0.00 0.00 75 1019.2
20200216114836 35 245 0.0 0.0 0.00 0.00 0.00 75 1019.2
20200216114331 35 245 0.0 0.0 0.00 0.00 0.00 75 1019.3
20200216113827 35 245 0.0 0.0 0.00 0.00 0.00 74 1019.3
20200216113323 35 245 0.0 0.0 0.00 0.00 0.00 74 1019.3
20200216112837 35 245 0.0 0.0 0.00 0.00 0.00 73 1019.3
20200216112335 35 245 0.0 0.0 0.00 0.00 0.00 72 1019.3
20200216111829 35 245 0.0 0.0 0.00 0.00 0.00 71 1019.4
20200216111326 36 245 0.0 0.0 0.00 0.00 0.00 70 1019.5
20200216110828 36 245 0.0 0.0 0.00 0.00 0.00 69 1019.5
20200216110323 36 245 0.0 0.0 0.00 0.00 0.00 68 1019.5
20200216105818 36 245 0.0 0.0 0.00 0.00 0.00 68 1019.5
20200216105334 36 245 0.0 0.0 0.00 0.00 0.00 68 1019.6
20200216104830 37 245 0.0 0.0 0.00 0.00 0.00 67 1019.6
20200216104326 37 245 0.0 0.0 0.00 0.00 0.00 66 1019.5
20200216103823 37 245 0.0 0.0 0.00 0.00 0.00 65 1019.5
20200216103319 37 245 0.0 0.0 0.00 0.00 0.00 65 1019.5
20200216102834 38 245 0.0 0.0 0.00 0.00 0.00 64 1019.5
20200216102331 38 245 0.0 0.0 0.00 0.00 0.00 63 1019.5
20200216101826 38 245 0.0 0.0 0.00 0.00 0.00 62 1019.6
20200216101322 38 245 0.0 0.0 0.00 0.00 0.00 61 1019.5
20200216100815 38 261 0.0 0.0 0.00 0.00 0.00 61 1019.5
20200216100334 39 261 0.0 0.0 0.00 0.00 0.00 61 1019.6
20200216095832 39 261 0.0 0.0 0.00 0.00 0.00 60 1019.6
20200216095328 39 261 0.0 0.0 0.00 0.00 0.00 60 1019.5
20200216094826 39 261 0.0 0.0 0.00 0.00 0.00 60 1019.6
20200216094324 39 261 0.0 0.0 0.00 0.00 0.00 60 1019.6
20200216093822 39 261 0.0 0.0 0.00 0.00 0.00 60 1019.6
20200216093318 39 261 0.0 0.0 0.00 0.00 0.00 60 1019.5
20200216092833 39 261 0.0 0.0 0.00 0.00 0.00 59 1019.5
20200216092331 39 261 0.0 0.0 0.00 0.00 0.00 59 1019.4
20200216091826 39 261 0.0 0.0 0.00 0.00 0.00 59 1019.5
20200216091326 39 261 0.0 0.0 0.00 0.00 0.00 59 1019.4
20200216090819 39 261 0.0 0.0 0.00 0.00 0.00 59 1019.4
20200216090336 39 261 0.0 0.0 0.00 0.00 0.00 58 1019.3
20200216085831 39 261 0.0 0.0 0.00 0.00 0.00 58 1019.4
20200216085326 39 261 0.0 0.0 0.00 0.00 0.00 58 1019.4
20200216084819 39 261 0.0 0.0 0.00 0.00 0.00 58 1019.4
20200216084335 40 261 0.0 0.0 0.00 0.00 0.00 57 1019.4
20200216083830 40 261 0.0 0.0 0.00 0.00 0.00 57 1019.4
20200216083326 40 261 0.0 0.0 0.00 0.00 0.00 56 1019.4
20200216082824 40 261 0.0 4.0 0.00 0.00 0.00 56 1019.5
20200216082322 40 261 1.0 4.0 0.00 0.00 0.00 56 1019.5
20200216081837 40 257 1.0 6.0 0.00 0.00 0.00 56 1019.5
20200216081333 40 246 0.0 6.0 0.00 0.00 0.00 56 1019.5
20200216080830 40 222 0.0 6.0 0.00 0.00 0.00 55 1019.5
20200216080327 40 194 1.0 6.0 0.00 0.00 0.00 55 1019.5
20200216075823 40 262 1.0 8.0 0.00 0.00 0.00 55 1019.5
20200216075317 40 225 0.0 6.0 0.00 0.00 0.00 55 1019.5
20200216074834 40 245 0.0 6.0 0.00 0.00 0.00 55 1019.5
20200216074332 40 216 0.0 5.0 0.00 0.00 0.00 55 1019.6
20200216073827 40 197 0.0 6.0 0.00 0.00 0.00 55 1019.6
20200216073322 40 236 1.0 6.0 0.00 0.00 0.00 55 1019.6
20200216072817 40 235 1.0 6.0 0.00 0.00 0.00 55 1019.7
20200216072335 40 240 1.0 6.0 0.00 0.00 0.00 55 1019.8
20200216071830 40 260 1.0 7.0 0.00 0.00 0.00 54 1019.9
20200216071326 40 285 2.0 8.0 0.00 0.00 0.00 54 1019.9
20200216070827 40 235 4.0 8.0 0.00 0.00 0.00 53 1020.1
20200216070320 40 235 2.0 5.0 0.00 0.00 0.00 54 1020.0
20200216065835 40 210 0.0 4.0 0.00 0.00 0.00 53 1019.9
20200216065330 40 208 0.0 7.0 0.00 0.00 0.00 53 1019.9
20200216064824 40 225 1.0 7.0 0.00 0.00 0.00 53 1019.9
20200216064317 40 226 2.0 5.0 0.00 0.00 0.00 53 1019.9
20200216063833 40 199 0.0 7.0 0.00 0.00 0.00 53 1019.9
20200216063328 40 207 5.0 7.0 0.00 0.00 0.00 53 1019.9
20200216062823 40 245 1.0 7.0 0.00 0.00 0.00 53 1019.9
20200216062341 39 188 2.0 8.0 0.00 0.00 0.00 53 1019.9
20200216061836 39 277 0.0 8.0 0.00 0.00 0.00 53 1019.9
20200216061332 39 226 0.0 6.0 0.00 0.00 0.00 53 1020.0
20200216060826 39 259 2.0 6.0 0.00 0.00 0.00 52 1019.9
20200216060324 39 256 1.0 3.0 0.00 0.00 0.00 52 1019.9
20200216055837 39 218 0.0 10.0 0.00 0.00 0.00 52 1019.9
20200216055332 39 224 3.0 10.0 0.00 0.00 0.00 52 1019.9
20200216054830 39 290 0.0 8.0 0.00 0.00 0.00 52 1019.9
20200216054328 39 235 3.0 8.0 0.00 0.00 0.00 52 1019.9
20200216053827 39 231 1.0 6.0 0.00 0.00 0.00 52 1019.9
20200216053326 39 226 4.0 6.0 0.00 0.00 0.00 52 1019.9
20200216052820 38 222 3.0 8.0 0.00 0.00 0.00 52 1020.0
20200216052336 38 233 3.0 8.0 0.00 0.00 0.00 53 1020.0
20200216051831 37 243 2.0 5.0 0.00 0.00 0.00 54 1020.0
20200216051326 37 176 0.0 9.0 0.00 0.00 0.00 55 1020.0
20200216050822 35 189 2.0 6.0 0.00 0.00 0.00 58 1020.0
20200216050318 35 222 1.0 3.0 0.00 0.00 0.00 59 1020.1
20200216045831 34 106 0.0 3.0 0.00 0.00 0.00 59 1020.0
20200216045326 34 106 0.0 0.0 0.00 0.00 0.00 60 1020.1
20200216044821 33 106 0.0 0.0 0.00 0.00 0.00 60 1020.1
20200216044315 33 106 0.0 0.0 0.00 0.00 0.00 60 1020.1
20200216043832 33 106 0.0 0.0 0.00 0.00 0.00 58 1020.0
20200216043328 34 106 0.0 0.0 0.00 0.00 0.00 58 1019.9
20200216042823 34 106 0.0 0.0 0.00 0.00 0.00 57 1020.2
20200216042322 34 106 0.0 0.0 0.00 0.00 0.00 57 1020.1
20200216041820 34 106 0.0 0.0 0.00 0.00 0.00 56 1020.0
20200216041319 34 106 0.0 0.0 0.00 0.00 0.00 56 1020.0
20200216040834 34 106 0.0 0.0 0.00 0.00 0.00 55 1020.1
20200216040329 34 106 0.0 0.0 0.00 0.00 0.00 54 1020.0
20200216035826 35 106 0.0 0.0 0.00 0.00 0.00 54 1020.1
20200216035322 35 106 0.0 0.0 0.00 0.00 0.00 54 1020.1
20200216034821 35 106 0.0 0.0 0.00 0.00 0.00 54 1019.9
20200216034318 35 106 0.0 0.0 0.00 0.00 0.00 54 1020.0
20200216033834 35 106 0.0 0.0 0.00 0.00 0.00 53 1019.9
20200216033329 35 106 0.0 0.0 0.00 0.00 0.00 52 1019.9
20200216032823 35 106 0.0 0.0 0.00 0.00 0.00 52 1020.0
20200216032322 35 106 0.0 0.0 0.00 0.00 0.00 52 1019.9
20200216031818 35 106 0.0 0.0 0.00 0.00 0.00 52 1019.9
20200216031318 35 106 0.0 0.0 0.00 0.00 0.00 53 1019.9
20200216030832 35 106 0.0 3.0 0.00 0.00 0.00 52 1019.9
20200216030331 35 106 0.0 3.0 0.00 0.00 0.00 52 1019.9
20200216025825 35 106 0.0 1.0 0.00 0.00 0.00 52 1020.0
20200216025322 35 106 0.0 1.0 0.00 0.00 0.00 52 1020.0
20200216024815 35 106 0.0 0.0 0.00 0.00 0.00 52 1019.9
20200216024316 35 106 0.0 0.0 0.00 0.00 0.00 52 1020.0
20200216023833 35 106 0.0 0.0 0.00 0.00 0.00 52 1020.0
20200216023327 35 106 0.0 0.0 0.00 0.00 0.00 53 1020.0
20200216022823 35 106 0.0 0.0 0.00 0.00 0.00 53 1020.0
20200216022338 35 106 0.0 0.0 0.00 0.00 0.00 53 1020.1
20200216021832 35 106 0.0 0.0 0.00 0.00 0.00 51 1020.0
20200216021328 35 106 0.0 0.0 0.00 0.00 0.00 50 1020.1
20200216020824 35 106 0.0 0.0 0.00 0.00 0.00 49 1019.9
20200216020323 35 106 0.0 3.0 0.00 0.00 0.00 50 1019.9
20200216015816 35 106 0.0 2.0 0.00 0.00 0.00 50 1020.0
20200216015336 35 120 0.0 0.0 0.00 0.00 0.00 50 1020.1
20200216014830 36 120 0.0 0.0 0.00 0.00 0.00 49 1020.3
20200216014329 36 120 0.0 0.0 0.00 0.00 0.00 48 1020.5
20200216013827 36 120 0.0 0.0 0.00 0.00 0.00 48 1020.6
20200216013325 36 120 0.0 0.0 0.00 0.00 0.00 47 1020.7
20200216012819 36 121 0.0 0.0 0.00 0.00 0.00 47 1020.8
20200216012338 36 121 0.0 0.0 0.00 0.00 0.00 46 1020.8
20200216011832 36 124 0.0 0.0 0.00 0.00 0.00 47 1020.8
20200216011329 36 124 0.0 0.0 0.00 0.00 0.00 48 1020.8
20200216010822 36 124 0.0 0.0 0.00 0.00 0.00 47 1020.9
20200216010321 36 124 0.0 0.0 0.00 0.00 0.00 48 1020.9
20200216005836 36 124 0.0 3.0 0.00 0.00 0.00 47 1020.9
20200216005331 36 124 0.0 3.0 0.00 0.00 0.00 48 1021.0
20200216004825 36 126 0.0 6.0 0.00 0.00 0.00 47 1020.9
20200216004324 36 160 0.0 6.0 0.00 0.00 0.00 46 1020.9
20200216003819 36 170 0.0 4.0 0.00 0.00 0.00 46 1021.0
20200216003334 36 144 1.0 4.0 0.00 0.00 0.00 45 1021.1
20200216002830 36 168 0.0 0.0 0.00 0.00 0.00 46 1021.0
20200216002331 36 168 0.0 0.0 0.00 0.00 0.00 46 1021.1
20200216001825 36 169 0.0 7.0 0.00 0.00 0.00 45 1021.1
20200216001324 36 158 1.0 7.0 0.00 0.00 0.00 45 1021.1
20200216000837 36 162 1.0 7.0 0.00 0.00 0.00 45 1021.1
20200216000334 36 166 1.0 7.0 0.00 0.00 0.00 46 1021.2
20200215235829 36 168 0.0 8.0 0.00 0.00 0.00 46 1021.2
20200215235326 36 181 3.0 8.0 0.00 0.00 0.00 46 1021.1
20200215234822 36 164 1.0 6.0 0.00 0.00 0.00 46 1021.2
20200215234337 36 143 0.0 5.0 0.00 0.00 0.00 47 1021.2
20200215233831 36 144 1.0 6.0 0.00 0.00 0.00 47 1021.3
20200215233326 36 176 0.0 7.0 0.00 0.00 0.00 46 1021.4
20200215232825 36 186 1.0 6.0 0.00 0.00 0.00 46 1021.5
20200215232323 36 137 1.0 6.0 0.00 0.00 0.00 46 1021.5
20200215231819 36 145 2.0 6.0 0.00 0.00 0.00 46 1021.6
20200215231335 36 127 0.0 8.0 0.00 0.00 0.00 46 1021.7
20200215230829 36 178 0.0 8.0 0.00 0.00 0.00 45 1021.7